This is the latest recevied weather packets stored in our database for station/object KC5DAQ-28. If no packets are shown the sender has not sent any weather packets the latest 1 day(s).
| Time | Temp. | Humidity | Pressure | Rain* | Wind** | Luminosity | Snow |
|---|---|---|---|---|---|---|---|
| 1778084522 | 27.22° C | 82% | 1005 hPa | 0 mm | - | 273 W/m² | - |
| 1778084463 | 27.22° C | 82% | 1005 hPa | 0 mm | - | 267 W/m² | - |
| 1778084104 | 27.22° C | 82% | 1004.8 hPa | 0 mm | - | 267 W/m² | - |
| 1778083984 | 27.22° C | 82% | 1004.7 hPa | 0 mm | - | 267 W/m² | - |
| 1778083683 | 27.22° C | 83% | 1004.6 hPa | 0 mm | - | 315 W/m² | - |
| 1778083564 | 27.22° C | 83% | 1004.5 hPa | 0 mm | - | 315 W/m² | - |
| 1778083262 | 27.22° C | 82% | 1004.7 hPa | 0 mm | - | 271 W/m² | - |
| 1778082722 | 26.67° C | 84% | 1004.6 hPa | 0 mm | - | 232 W/m² | - |
| 1778082422 | 26.67° C | 84% | 1004.7 hPa | 0 mm | - | 167 W/m² | - |
| 1778082362 | 26.67° C | 84% | 1004.7 hPa | 0 mm | - | 167 W/m² | - |
| 1778082244 | 26.67° C | 84% | 1004.7 hPa | 0 mm | - | 188 W/m² | - |
| 1778081943 | 26.67° C | 84% | 1004.7 hPa | 0 mm | - | 215 W/m² | - |
| 1778081883 | 26.67° C | 84% | 1004.7 hPa | 0 mm | - | 211 W/m² | - |
| 1778081704 | 26.67° C | 84% | 1004.6 hPa | 0 mm | - | 171 W/m² | - |
| 1778081584 | 26.67° C | 84% | 1004.6 hPa | 0 mm | - | 171 W/m² | - |
| 1778081283 | 26.67° C | 84% | 1004.5 hPa | 0 mm | - | 144 W/m² | - |
| 1778081223 | 26.67° C | 85% | 1004.5 hPa | 0 mm | - | 132 W/m² | - |
| 1778081164 | 26.67° C | 85% | 1004.6 hPa | 0 mm | - | 132 W/m² | - |
| 1778081043 | 26.67° C | 85% | 1004.6 hPa | 0 mm | - | 192 W/m² | - |
| 1778080982 | 26.67° C | 85% | 1004.5 hPa | 0 mm | - | 192 W/m² | - |
| 1778080864 | 26.67° C | 85% | 1004.4 hPa | 0 mm | - | 153 W/m² | - |
| 1778080563 | 26.67° C | 85% | 1004.5 hPa | 0 mm | - | 153 W/m² | - |
| 1778080384 | 26.67° C | 85% | 1004.4 hPa | 0 mm | - | 181 W/m² | - |
| 1778079903 | 26.11° C | 85% | 1004.2 hPa | 0 mm | - | 202 W/m² | - |
| 1778079724 | 26.67° C | 85% | 1004.2 hPa | 0 mm | - | 186 W/m² | - |
* Rain latest hour (hover to see other rain measurements)
** Current wind speed in m/s (hover to see current wind gust speed)